GW0262 Weather Reports


time (UTC)temp
C
wind
direction
speed
KPH
gust
KPH
rain 1hr
cm
rain 24hr
cm
rain mn
cm
humidity
%
barometer
mb
20260507211602 13 299 0.0 6.4 0.00 0.13 0.13 79 1010.7
20260507210113 12 0 1.6 6.4 0.00 0.13 0.13 80 1010.3
20260507204555 12 106 3.2 9.7 0.00 0.13 0.13 80 1010.4
20260507203056 11 270 1.6 6.4 0.00 0.13 0.13 82 1010.7
20260507201600 12 109 1.6 6.4 0.00 0.13 0.13 80 1011.0
20260507200105 11 107 1.6 4.8 0.03 0.13 0.13 79 1011.0
20260507194600 11 123 1.6 8.0 0.05 0.13 0.13 78 1011.2
20260507193052 11 109 3.2 9.7 0.05 0.13 0.13 78 1011.3
20260507191553 11 127 3.2 14.5 0.05 0.13 0.13 80 1011.4
20260507190107 11 107 1.6 6.4 0.03 0.10 0.10 84 1011.6
20260507184554 11 103 3.2 9.7 0.00 0.08 0.08 74 1011.4
20260507183112 11 126 4.8 12.9 0.00 0.08 0.08 70 1011.4
20260507181558 12 117 6.4 14.5 0.00 0.08 0.08 65 1011.5
20260507180053 12 108 6.4 16.1 0.00 0.08 0.08 69 1011.7
20260507174602 12 36 1.6 4.8 0.00 0.08 0.08 74 1011.5
20260507173110 12 60 1.6 4.8 0.00 0.08 0.08 75 1011.9
20260507171559 12 360 0.0 4.8 0.00 0.08 0.08 76 1011.8
20260507170054 13 360 1.6 8.0 0.00 0.08 0.08 70 1011.9
20260507164633 13 47 4.8 9.7 0.00 0.08 0.08 68 1011.9
20260507163059 12 28 3.2 6.4 0.00 0.08 0.08 72 1012.1
20260507161603 12 32 1.6 6.4 0.00 0.08 0.08 72 1012.2
20260507160052 12 36 3.2 12.9 0.00 0.08 0.08 72 1012.5
20260507154600 12 351 4.8 12.9 0.00 0.08 0.08 73 1012.6
20260507153055 12 54 4.8 12.9 0.00 0.08 0.08 75 1012.8
20260507151553 13 61 3.2 8.0 0.05 0.08 0.08 79 1012.3
20260507150055 12 33 3.2 6.4 0.05 0.08 0.08 81 1012.3
20260507144600 12 32 1.6 4.8 0.05 0.18 0.08 84 1012.7
20260507143105 12 34 1.6 8.0 0.05 0.18 0.08 85 1012.5
20260507141551 13 33 4.8 11.3 0.00 0.13 0.03 76 1012.8
20260507140052 13 44 1.6 8.0 0.00 0.13 0.03 77 1012.8
20260507134557 13 46 3.2 6.4 0.00 0.25 0.03 79 1012.8
20260507133057 12 26 3.2 8.0 0.00 0.25 0.03 79 1013.0
20260507131605 12 57 1.6 4.8 0.00 0.25 0.03 81 1012.9
20260507130057 12 24 3.2 6.4 0.00 0.25 0.03 80 1012.7
20260507124602 12 34 1.6 6.4 0.00 0.28 0.03 82 1012.5
20260507123048 12 30 3.2 6.4 0.00 0.28 0.03 82 1012.7
20260507121555 12 32 3.2 8.0 0.00 0.28 0.03 83 1012.7
20260507120055 12 336 0.0 6.4 0.00 0.28 0.03 84 1012.5
20260507114609 12 51 3.2 8.0 0.00 0.28 0.03 84 1012.4
20260507113121 12 23 4.8 8.0 0.00 0.28 0.03 84 1012.2
20260507111556 12 5 3.2 8.0 0.00 0.28 0.03 85 1012.1
20260507110051 12 36 1.6 6.4 0.00 0.28 0.03 87 1011.8
20260507104557 12 37 1.6 6.4 0.00 0.28 0.03 87 1011.8
20260507103056 12 0 0.0 6.4 0.00 0.28 0.03 87 1012.0
20260507101553 12 80 0.0 6.4 0.00 0.28 0.03 87 1011.8
20260507100115 12 36 1.6 8.0 0.00 0.28 0.03 87 1012.0
20260507094557 12 57 3.2 6.4 0.00 0.28 0.03 88 1010.7
20260507093056 12 24 3.2 6.4 0.00 0.28 0.03 89 1011.6
20260507091629 12 25 1.6 4.8 0.00 0.28 0.03 90 1011.5
20260507090053 12 28 4.8 8.0 0.00 0.28 0.03 90 1011.4
20260507084604 13 57 4.8 12.9 0.00 0.28 0.03 91 1011.3
20260507083051 13 65 3.2 8.0 0.00 0.28 0.03 91 1011.1
20260507081558 13 38 4.8 9.7 0.00 0.28 0.03 91 1010.7
20260507080051 13 42 6.4 11.3 0.00 0.28 0.03 91 1010.9
20260507074556 13 50 4.8 6.4 0.00 0.28 0.03 92 1011.0
20260507073053 13 32 4.8 11.3 0.00 0.28 0.03 93 1010.3
20260507071552 13 57 3.2 8.0 0.00 0.28 0.03 94 1010.3
20260507070059 14 55 4.8 17.7 0.00 0.28 0.03 94 1010.0
20260507064555 16 9 6.4 12.9 0.00 0.28 0.03 95 1010.1
20260507063053 17 31 3.2 4.8 0.00 0.28 0.03 96 1010.1
20260507061556 17 307 0.0 3.2 0.00 0.28 0.03 95 1010.1
20260507060100 17 0 0.0 1.6 0.03 0.28 0.03 95 1009.9
20260507054557 17 0 1.6 3.2 0.03 0.28 0.03 95 1009.7
20260507053053 17 0 0.0 3.2 0.03 0.28 0.03 94 1008.9
20260507051552 17 0 0.0 1.6 0.03 0.28 0.03 94 1009.2
20260507050052 17 307 0.0 3.2 0.00 0.25 0.00 93 1009.1
20260507044606 18 0 0.0 3.2 0.00 0.25 0.00 92 1009.9
20260507043104 17 0 0.0 3.2 0.00 0.25 0.00 92 1010.0
20260507041604 18 0 0.0 1.6 0.00 0.25 0.00 90 1010.0
20260507040055 18 78 0.0 4.8 0.00 0.25 0.00 88 1009.9
20260507034554 19 301 0.0 4.8 0.00 0.25 0.25 86 1010.2
20260507033056 19 268 1.6 6.4 0.00 0.25 0.25 86 1010.3
20260507031553 18 0 1.6 6.4 0.00 0.25 0.25 87 1010.3
20260507030051 18 108 0.0 9.7 0.00 0.25 0.25 86 1010.0
20260507024554 19 310 1.6 9.7 0.00 0.25 0.25 86 1010.3
20260507023104 19 232 0.0 9.7 0.00 0.25 0.25 84 1009.8
20260507021555 19 34 1.6 11.3 0.00 0.25 0.25 85 1009.3
20260507020059 19 108 1.6 8.0 0.00 0.25 0.25 84 1009.3
20260507014556 19 0 1.6 6.4 0.00 0.25 0.25 83 1009.7
20260507013054 20 107 1.6 6.4 0.00 0.25 0.25 82 1009.5
20260507011551 19 55 1.6 6.4 0.00 0.25 0.25 83 1009.8
20260507010052 19 180 0.0 11.3 0.00 0.25 0.25 83 1009.8
20260507004553 20 248 0.0 9.7 0.00 0.25 0.25 82 1009.7
20260507003106 20 0 0.0 9.7 0.00 0.25 0.25 81 1009.5
20260507001615 20 0 1.6 6.4 0.00 0.25 0.25 81 1009.7
20260507000055 20 132 3.2 11.3 0.00 0.25 0.25 80 1009.5
20260506234555 20 190 3.2 9.7 0.00 0.25 0.25 80 1009.2
20260506233101 20 242 3.2 14.5 0.00 0.25 0.25 79 1009.7
20260506231606 21 328 3.2 14.5 0.00 0.25 0.25 78 1009.4
20260506230113 21 0 3.2 16.1 0.00 0.25 0.25 77 1009.2
20260506224554 21 103 1.6 12.9 0.00 0.25 0.25 77 1008.9
20260506223057 21 286 4.8 20.9 0.00 0.25 0.25 77 1009.1
20260506221609 21 223 3.2 11.3 0.00 0.25 0.25 77 1009.1
20260506220053 21 216 6.4 16.1 0.00 0.25 0.25 76 1009.2
20260506214555 21 195 6.4 16.1 0.00 0.25 0.25 77 1009.3
20260506213051 21 259 3.2 12.9 0.00 0.25 0.25 78 1008.9